Overview Statistics Trail Chart Weather Telemetry Raw packets
 

This is the latest recevied weather packets stored in our database for station/object WX0ABE-13. If no packets are shown the sender has not sent any weather packets the latest 10 day(s).

<< 8 9 10 11 12 13 14 >>
Time Temp. Humidity Pressure Rain* Wind** Luminosity Snow
1788311039 28.89° C 37% 1014.6 hPa 0 mm - 11 W/m² -
1788310739 28.89° C 36% 1014.6 hPa 0 mm - 14 W/m² -
1788310438 29.44° C 35% 1014.6 hPa 0 mm - 16 W/m² -
1788310134 29.44° C 34% 1014.7 hPa 0 mm - 17 W/m² -
1788309833 28.89° C 34% 1014.6 hPa 0 mm - 19 W/m² -
1788309529 29.44° C 34% 1014.8 hPa 0 mm - 20 W/m² -
1788309224 29.44° C 33% 1014.8 hPa 0 mm - 22 W/m² -
1788308920 29.44° C 33% 1014.9 hPa 0 mm - 23 W/m² -
1788308618 30° C 32% 1014.6 hPa 0 mm - 25 W/m² -
1788308314 30° C 32% 1014.8 hPa 0 mm - 26 W/m² -
1788308010 30.56° C 31% 1015 hPa 0 mm - 55 W/m² -
1788307705 30.56° C 31% 1014.8 hPa 0 mm - 86 W/m² -
1788307404 30.56° C 31% 1014.8 hPa 0 mm - 96 W/m² -
1788307100 30.56° C 31% 1014.9 hPa 0 mm - 108 W/m² -
1788306799 30.56° C 31% 1014.7 hPa 0 mm - 118 W/m² -
1788306500 30.56° C 30% 1015 hPa 0 mm - 129 W/m² -
1788306194 30.56° C 30% 1014.9 hPa 0 mm - 143 W/m² -
1788305890 31.11° C 29% 1015 hPa 0 mm - 156 W/m² -
1788305585 30.56° C 29% 1015 hPa 0 mm - 93 W/m² -
1788305281 30.56° C 30% 1015 hPa 0 mm - 181 W/m² -
1788304975 30.56° C 29% 1015 hPa 0 mm - 143 W/m² -
1788304672 31.11° C 29% 1015.2 hPa 0 mm - 209 W/m² -
1788304368 31.11° C 29% 1015.2 hPa 0 mm - 222 W/m² -
1788304063 30.56° C 30% 1015.3 hPa 0 mm - 237 W/m² -
1788303763 30.56° C 30% 1015.4 hPa 0 mm - 54 W/m² -

* Rain latest hour (hover to see other rain measurements)
** Current wind speed in m/s (hover to see current wind gust speed)